Hourly Data Report for February 25, 2017

All times are specified in Local Standard Time (LST). Add 1 hour to adjust for Daylight Saving Time where and when it is observed.

TORONTO CITY
ONTARIO

43°40'00.000" N
79°24'00.000" W
112.50 m
6158355
71508
XTO

Download Data

Hourly Data (February 2017)
Hourly Data Report for February 25, 2017
TIME Temp Definition
°C
Dew Point Definition
°C
Rel Hum Definition
%
Wind Dir Definition
10's deg

Wind Spd Definition
km/h
Visibility Definition
km
Stn Press Definition
kPa
Hmdx Definition


Wind Chill Definition


Weather Definition


00:00 3.3 2.8 97 LegendMM LegendMM   98.82     LegendNANA
01:00 3.4 2.9 96 LegendMM LegendMM   98.57     LegendNANA
02:00 3.0 2.5 97 LegendMM LegendMM   98.67     LegendNANA
03:00 3.9 3.4 97 LegendMM LegendMM   98.59     LegendNANA
04:00 4.0 3.4 96 LegendMM LegendMM   98.48     LegendNANA
05:00 4.3 3.6 96 LegendMM LegendMM   98.41     LegendNANA
06:00 4.6 4.0 96 LegendMM LegendMM   98.34     LegendNANA
07:00 5.5 5.0 96 LegendMM LegendMM   98.26     LegendNANA
08:00 6.2 5.6 96 LegendMM LegendMM   98.28     LegendNANA
09:00 7.6 7.0 96 LegendMM LegendMM   98.28     LegendNANA
10:00 6.8 4.6 86 LegendMM LegendMM   98.42     LegendNANA
11:00 7.7 2.0 67 LegendMM LegendMM   98.44     LegendNANA
12:00 7.7 0.4 60 LegendMM LegendMM   98.48     LegendNANA
13:00 8.3 0.6 58 LegendMM LegendMM   98.41     LegendNANA
14:00 8.1 -0.3 56 LegendMM LegendMM   98.47     LegendNANA
15:00 5.3 -1.2 63 LegendMM LegendMM   98.62     LegendNANA
16:00 4.7 -2.9 58 LegendMM LegendMM   98.66     LegendNANA
17:00 3.5 -5.7 51 LegendMM LegendMM   98.77     LegendNANA
18:00 2.3 -6.4 53 LegendMM LegendMM   98.89     LegendNANA
19:00 1.8 -6.0 56 LegendMM LegendMM   99.01     LegendNANA
20:00 1.0 -6.0 60 LegendMM LegendMM   99.19     LegendNANA
21:00 0.3 -5.3 66 LegendMM LegendMM   99.38     LegendNANA
22:00 -0.4 -6.1 65 LegendMM LegendMM   99.46     LegendNANA
23:00 -0.7 -6.6 64 LegendMM LegendMM   99.53     LegendNANA

Notes on Data Quality.

Legend

  • E = Estimated
  • M = Missing
  • NA = Not Available
Date modified: